TimeMST,TemperatureF,Dew PointF,Humidity,Sea Level PressureIn,VisibilityMPH,Wind Direction,Wind SpeedMPH,Gust SpeedMPH,PrecipitationIn,Events,Conditions,WindDirDegrees,DateUTC
12:15 AM,53.6,33.8,47,30.12,10.0,WNW,3.5,-,N/A,,Clear,300,2012-10-08 07:15:00
12:35 AM,53.6,33.8,47,30.12,10.0,WNW,4.6,-,N/A,,Clear,300,2012-10-08 07:35:00
12:55 AM,53.6,33.8,47,30.12,10.0,WNW,3.5,-,N/A,,Clear,300,2012-10-08 07:55:00
1:15 AM,53.6,33.8,47,30.12,10.0,WNW,3.5,-,N/A,,Clear,290,2012-10-08 08:15:00
1:35 AM,53.6,33.8,47,30.12,10.0,NW,3.5,-,N/A,,Clear,310,2012-10-08 08:35:00
1:55 AM,53.6,33.8,47,30.12,10.0,WNW,3.5,-,N/A,,Clear,300,2012-10-08 08:55:00
2:15 AM,53.6,33.8,47,30.11,10.0,Calm,Calm,-,N/A,,Clear,0,2012-10-08 09:15:00
2:35 AM,53.6,33.8,47,30.11,10.0,Calm,Calm,-,N/A,,Clear,0,2012-10-08 09:35:00
2:55 AM,53.6,33.8,47,30.11,10.0,Calm,Calm,-,N/A,,Clear,0,2012-10-08 09:55:00
3:35 AM,51.8,33.8,50,30.11,10.0,Calm,Calm,-,N/A,,Clear,0,2012-10-08 10:35:00
3:55 AM,51.8,33.8,50,30.11,10.0,Calm,Calm,-,N/A,,Clear,0,2012-10-08 10:55:00
4:15 AM,51.8,33.8,50,30.11,10.0,WNW,3.5,-,N/A,,Clear,300,2012-10-08 11:15:00
4:35 AM,50.0,33.8,54,30.11,10.0,WNW,3.5,-,N/A,,Clear,290,2012-10-08 11:35:00
4:55 AM,50.0,33.8,54,30.12,10.0,WNW,3.5,-,N/A,,Clear,300,2012-10-08 11:55:00
5:15 AM,50.0,33.8,54,30.12,10.0,Calm,Calm,-,N/A,,Clear,0,2012-10-08 12:15:00
5:35 AM,50.0,33.8,54,30.13,10.0,Calm,Calm,-,N/A,,Clear,0,2012-10-08 12:35:00
5:55 AM,50.0,33.8,54,30.13,10.0,WNW,3.5,-,N/A,,Clear,290,2012-10-08 12:55:00
6:15 AM,48.2,33.8,58,30.13,10.0,WNW,3.5,-,N/A,,Clear,300,2012-10-08 13:15:00
6:35 AM,48.2,33.8,58,30.14,10.0,WNW,3.5,-,N/A,,Clear,290,2012-10-08 13:35:00
6:55 AM,50.0,33.8,54,30.14,10.0,Calm,Calm,-,N/A,,Clear,0,2012-10-08 13:55:00
7:15 AM,51.8,33.8,50,30.15,10.0,Calm,Calm,-,N/A,,Clear,0,2012-10-08 14:15:00
7:35 AM,53.6,35.6,51,30.16,10.0,Calm,Calm,-,N/A,,Clear,0,2012-10-08 14:35:00
7:55 AM,57.2,35.6,44,30.16,10.0,Calm,Calm,-,N/A,,Clear,0,2012-10-08 14:55:00
8:15 AM,62.6,35.6,37,30.16,10.0,Calm,Calm,-,N/A,,Clear,0,2012-10-08 15:15:00
8:35 AM,64.4,35.6,34,30.17,10.0,ESE,3.5,-,N/A,,Clear,120,2012-10-08 15:35:00
8:55 AM,66.2,35.6,32,30.17,10.0,SE,5.8,-,N/A,,Clear,140,2012-10-08 15:55:00
9:15 AM,66.2,35.6,32,30.17,10.0,SE,4.6,-,N/A,,Clear,140,2012-10-08 16:15:00
9:35 AM,69.8,35.6,28,30.17,10.0,SSE,5.8,-,N/A,,Clear,150,2012-10-08 16:35:00
9:55 AM,69.8,35.6,28,30.16,10.0,SSE,9.2,-,N/A,,Clear,160,2012-10-08 16:55:00
10:15 AM,71.6,35.6,27,30.16,10.0,WSW,9.2,-,N/A,,Clear,240,2012-10-08 17:15:00
10:35 AM,71.6,35.6,27,30.16,10.0,SW,3.5,-,N/A,,Clear,220,2012-10-08 17:35:00
10:55 AM,71.6,35.6,27,30.16,10.0,SSW,9.2,-,N/A,,Clear,200,2012-10-08 17:55:00
11:15 AM,71.6,35.6,27,30.16,10.0,West,4.6,-,N/A,,Clear,260,2012-10-08 18:15:00
11:35 AM,73.4,35.6,25,30.15,9.0,West,8.1,-,N/A,,Clear,260,2012-10-08 18:35:00
11:55 AM,73.4,35.6,25,30.14,10.0,SW,4.6,17.3,N/A,,Clear,220,2012-10-08 18:55:00
12:15 PM,73.4,35.6,25,30.14,10.0,WNW,10.4,16.1,N/A,,Clear,290,2012-10-08 19:15:00
12:35 PM,75.2,33.8,22,30.13,10.0,SW,10.4,-,N/A,,Clear,220,2012-10-08 19:35:00
12:55 PM,75.2,33.8,22,30.12,10.0,SW,9.2,-,N/A,,Clear,230,2012-10-08 19:55:00
1:15 PM,75.2,33.8,22,30.11,10.0,South,6.9,-,N/A,,Clear,170,2012-10-08 20:15:00
1:35 PM,75.2,33.8,22,30.11,10.0,WSW,8.1,-,N/A,,Clear,240,2012-10-08 20:35:00
1:55 PM,75.2,33.8,22,30.10,10.0,South,9.2,-,N/A,,Clear,180,2012-10-08 20:55:00
2:15 PM,75.2,32.0,21,30.10,10.0,SW,8.1,-,N/A,,Clear,230,2012-10-08 21:15:00
2:35 PM,75.2,32.0,21,30.09,10.0,WSW,8.1,-,N/A,,Clear,250,2012-10-08 21:35:00
2:55 PM,75.2,32.0,21,30.09,10.0,West,10.4,16.1,N/A,,Clear,270,2012-10-08 21:55:00
3:15 PM,75.2,32.0,21,30.09,10.0,West,11.5,-,N/A,,Clear,260,2012-10-08 22:15:00
3:35 PM,75.2,33.8,22,30.09,10.0,West,11.5,-,N/A,,Clear,270,2012-10-08 22:35:00
3:55 PM,75.2,32.0,21,30.08,10.0,West,6.9,-,N/A,,Clear,260,2012-10-08 22:55:00
4:15 PM,75.2,32.0,21,30.08,10.0,SW,5.8,17.3,N/A,,Clear,230,2012-10-08 23:15:00
4:55 PM,73.4,32.0,22,30.08,10.0,SSW,6.9,-,N/A,,Clear,210,2012-10-08 23:55:00
5:15 PM,73.4,32.0,22,30.08,10.0,WSW,8.1,-,N/A,,Clear,240,2012-10-09 00:15:00
5:35 PM,71.6,32.0,23,30.09,10.0,West,9.2,-,N/A,,Clear,260,2012-10-09 00:35:00
5:55 PM,69.8,32.0,25,30.09,10.0,WSW,6.9,-,N/A,,Clear,240,2012-10-09 00:55:00
6:15 PM,68.0,33.8,28,30.09,10.0,WSW,5.8,-,N/A,,Clear,250,2012-10-09 01:15:00
6:35 PM,68.0,33.8,28,30.10,10.0,WSW,4.6,-,N/A,,Clear,250,2012-10-09 01:35:00
6:55 PM,66.2,33.8,30,30.10,10.0,SW,4.6,-,N/A,,Clear,230,2012-10-09 01:55:00
7:15 PM,66.2,33.8,30,30.11,10.0,WSW,4.6,-,N/A,,Clear,240,2012-10-09 02:15:00
7:35 PM,66.2,33.8,30,30.11,10.0,WSW,5.8,-,N/A,,Clear,240,2012-10-09 02:35:00
7:55 PM,64.4,33.8,32,30.11,10.0,WSW,5.8,-,N/A,,Clear,240,2012-10-09 02:55:00
8:55 PM,62.6,35.6,37,30.13,10.0,Calm,Calm,-,N/A,,Clear,0,2012-10-09 03:55:00
9:35 PM,62.6,35.6,37,30.13,10.0,Calm,Calm,-,N/A,,Clear,0,2012-10-09 04:35:00
9:55 PM,57.2,35.6,44,30.14,10.0,Calm,Calm,-,N/A,,Clear,0,2012-10-09 04:55:00
10:15 PM,53.6,33.8,47,30.14,10.0,WNW,3.5,-,N/A,,Clear,300,2012-10-09 05:15:00
10:35 PM,55.4,33.8,44,30.14,10.0,WNW,3.5,-,N/A,,Clear,290,2012-10-09 05:35:00
10:55 PM,55.4,33.8,44,30.14,10.0,WNW,3.5,-,N/A,,Clear,290,2012-10-09 05:55:00
11:15 PM,53.6,33.8,47,30.14,10.0,NW,3.5,-,N/A,,Clear,320,2012-10-09 06:15:00
11:35 PM,55.4,33.8,44,30.13,10.0,Calm,Calm,-,N/A,,Clear,0,2012-10-09 06:35:00
11:55 PM,55.4,33.8,44,30.13,10.0,Calm,Calm,-,N/A,,Clear,0,2012-10-09 06:55:00